MQC97DF HDAM-HAAB

Flight info

Callsign MQC97DF
Flight time 0h 53m
Altitude 36000
Route LAKBE1G LAKBE LAKBE3A
Aircraft B738/M-SDE2E3FGHIRWXY/LB1

Departure

Time 2026-04-21 05:34
Airport Djibouti-Ambouli Airport (HDAM)

Arrival

Time 2026-04-21 06:27
Airport Addis Ababa Bole International Airport (HAAB)
Time Latitude Longitude Altitude Speed Heading
2026-04-21 05:26 11.55143 43.14533 56 ft 0 kts 360°
2026-04-21 05:30 11.55146 43.14535 56 ft 2 kts 16°
2026-04-21 05:31 11.55147 43.14553 56 ft 3 kts 124°
2026-04-21 05:31 11.55121 43.14571 54 ft 6 kts 145°
2026-04-21 05:31 11.55091 43.14598 52 ft 8 kts 134°
2026-04-21 05:31 11.55039 43.14616 51 ft 9 kts 176°
2026-04-21 05:32 11.55018 43.14615 53 ft 9 kts 188°
2026-04-21 05:32 11.54937 43.14609 51 ft 11 kts 179°
2026-04-21 05:32 11.54864 43.14610 55 ft 13 kts 179°
2026-04-21 05:32 11.54800 43.14610 49 ft 6 kts 179°
2026-04-21 05:33 11.54756 43.14627 53 ft 8 kts 119°
2026-04-21 05:33 11.54751 43.14704 54 ft 34 kts 92°
2026-04-21 05:33 11.54743 43.15229 52 ft 116 kts 90°
2026-04-21 05:33 11.54730 43.16196 206 ft 164 kts 90°
2026-04-21 05:34 11.54762 43.17307 861 ft 182 kts 89°
2026-04-21 05:34 11.54422 43.18465 1979 ft 176 kts 136°
2026-04-21 05:34 11.53279 43.19030 2648 ft 199 kts 166°
2026-04-21 05:34 11.51813 43.18851 2858 ft 233 kts 207°
2026-04-21 05:35 11.50612 43.17648 3253 ft 260 kts 234°
2026-04-21 05:35 11.49672 43.16020 3808 ft 275 kts 240°
2026-04-21 05:35 11.48751 43.14257 4604 ft 280 kts 239°
2026-04-21 05:35 11.48184 43.13184 5186 ft 280 kts 238°
2026-04-21 05:36 11.47592 43.12091 5698 ft 282 kts 237°
2026-04-21 05:36 11.46952 43.10935 6232 ft 284 kts 236°
2026-04-21 05:36 11.46050 43.09334 6973 ft 285 kts 236°
2026-04-21 05:36 11.44779 43.07117 7952 ft 288 kts 236°
2026-04-21 05:37 11.44094 43.05936 8483 ft 289 kts 235°
2026-04-21 05:37 11.43286 43.04550 9059 ft 291 kts 235°
2026-04-21 05:37 11.43232 43.04458 9094 ft 291 kts 235°
2026-04-21 05:37 11.42370 43.02966 9677 ft 294 kts 237°
2026-04-21 05:38 11.41343 43.01146 10335 ft 300 kts 238°
2026-04-21 05:38 11.40255 42.99240 10513 ft 322 kts 238°
2026-04-21 05:38 11.39075 42.97214 10670 ft 343 kts 238°
2026-04-21 05:38 11.37868 42.95170 11027 ft 354 kts 238°
2026-04-21 05:39 11.36577 42.93010 11608 ft 358 kts 238°
2026-04-21 05:39 11.35271 42.90841 12290 ft 359 kts 238°
2026-04-21 05:39 11.33961 42.88670 12956 ft 361 kts 238°
2026-04-21 05:39 11.32638 42.86476 13527 ft 366 kts 239°
2026-04-21 05:40 11.31374 42.84208 14041 ft 370 kts 243°
2026-04-21 05:40 11.30247 42.81826 14579 ft 376 kts 246°
2026-04-21 05:40 11.29234 42.79361 15160 ft 378 kts 249°
2026-04-21 05:40 11.28303 42.76835 15656 ft 384 kts 250°
2026-04-21 05:41 11.27380 42.74266 16131 ft 389 kts 250°
2026-04-21 05:41 11.26427 42.71672 16599 ft 394 kts 249°
2026-04-21 05:41 11.25432 42.69052 17075 ft 398 kts 249°
2026-04-21 05:41 11.24403 42.66421 17569 ft 402 kts 248°
2026-04-21 05:42 11.23347 42.63774 18064 ft 405 kts 248°
2026-04-21 05:42 11.22273 42.61112 18493 ft 409 kts 248°
2026-04-21 05:42 11.21184 42.58424 18954 ft 412 kts 248°
2026-04-21 05:42 11.20087 42.55724 19464 ft 413 kts 248°
2026-04-21 05:43 11.18988 42.53017 19941 ft 414 kts 248°
2026-04-21 05:43 11.17884 42.50297 20368 ft 417 kts 248°
2026-04-21 05:43 11.16772 42.47559 20780 ft 420 kts 248°
2026-04-21 05:43 11.15655 42.44805 21191 ft 422 kts 248°
2026-04-21 05:44 11.14532 42.42036 21616 ft 424 kts 248°
2026-04-21 05:44 11.13405 42.39257 22002 ft 426 kts 248°
2026-04-21 05:44 11.12272 42.36463 22372 ft 428 kts 249°
2026-04-21 05:44 11.11132 42.33655 22721 ft 430 kts 249°
2026-04-21 05:45 11.09987 42.30835 23091 ft 432 kts 249°
2026-04-21 05:45 11.08837 42.28005 23433 ft 434 kts 249°
2026-04-21 05:45 11.07680 42.25156 23768 ft 436 kts 249°
2026-04-21 05:45 11.06521 42.22303 24088 ft 437 kts 249°
2026-04-21 05:46 11.05356 42.19437 24389 ft 439 kts 249°
2026-04-21 05:46 11.04183 42.16560 24690 ft 441 kts 248°
2026-04-21 05:46 11.02880 42.13721 24994 ft 444 kts 244°
2026-04-21 05:46 11.01384 42.10970 25310 ft 445 kts 240°
2026-04-21 05:47 10.99720 42.08303 25597 ft 448 kts 237°
2026-04-21 05:47 10.97921 42.05705 25875 ft 450 kts 236°
2026-04-21 05:47 10.96089 42.03125 26145 ft 451 kts 236°
2026-04-21 05:47 10.94267 42.00514 26400 ft 453 kts 236°
2026-04-21 05:48 10.92482 41.97874 26680 ft 454 kts 237°
2026-04-21 05:48 10.90724 41.95201 26978 ft 455 kts 238°
2026-04-21 05:48 10.88987 41.92508 27240 ft 456 kts 238°
2026-04-21 05:48 10.87257 41.89797 27488 ft 458 kts 238°
2026-04-21 05:49 10.85529 41.87072 27732 ft 459 kts 238°
2026-04-21 05:49 10.83797 41.84339 27980 ft 460 kts 238°
2026-04-21 05:49 10.82060 41.81598 28232 ft 462 kts 238°
2026-04-21 05:49 10.80318 41.78852 28461 ft 463 kts 238°
2026-04-21 05:50 10.78566 41.76098 28693 ft 464 kts 238°
2026-04-21 05:50 10.76807 41.73336 28931 ft 466 kts 238°
2026-04-21 05:50 10.75043 41.70568 29159 ft 467 kts 238°
2026-04-21 05:50 10.73277 41.67797 29368 ft 468 kts 238°
2026-04-21 05:51 10.71504 41.65017 29568 ft 469 kts 238°
2026-04-21 05:51 10.69726 41.62229 29788 ft 470 kts 238°
2026-04-21 05:51 10.67945 41.59435 29993 ft 471 kts 238°
2026-04-21 05:51 10.66159 41.56637 30173 ft 473 kts 238°
2026-04-21 05:52 10.64367 41.53828 30353 ft 474 kts 238°
2026-04-21 05:52 10.62572 41.51014 30544 ft 475 kts 238°
2026-04-21 05:52 10.60768 41.48188 30734 ft 476 kts 238°
2026-04-21 05:52 10.58988 41.45402 30961 ft 476 kts 238°
2026-04-21 05:53 10.57163 41.42550 31257 ft 474 kts 238°
2026-04-21 05:53 10.55392 41.39780 31548 ft 473 kts 238°
2026-04-21 05:53 10.53602 41.36979 31816 ft 472 kts 238°
2026-04-21 05:53 10.51816 41.34183 32052 ft 472 kts 238°
2026-04-21 05:54 10.50029 41.31386 32311 ft 471 kts 238°
2026-04-21 05:54 10.48245 41.28596 32583 ft 470 kts 238°
2026-04-21 05:54 10.46466 41.25814 32819 ft 470 kts 238°
2026-04-21 05:54 10.44685 41.23030 33058 ft 469 kts 238°
2026-04-21 05:55 10.42909 41.20256 33311 ft 468 kts 238°
2026-04-21 05:55 10.41133 41.17483 33589 ft 467 kts 238°
2026-04-21 05:55 10.39364 41.14721 33851 ft 466 kts 238°
2026-04-21 05:55 10.37596 41.11960 34089 ft 466 kts 238°
2026-04-21 05:56 10.35829 41.09200 34341 ft 466 kts 238°
2026-04-21 05:56 10.34063 41.06443 34597 ft 465 kts 238°
2026-04-21 05:56 10.32301 41.03693 34817 ft 465 kts 238°
2026-04-21 05:56 10.30536 41.00941 35048 ft 465 kts 238°
2026-04-21 05:57 10.28774 40.98193 35289 ft 463 kts 238°
2026-04-21 05:57 10.27013 40.95451 35471 ft 464 kts 238°
2026-04-21 05:57 10.23471 40.89930 35514 ft 469 kts 238°
2026-04-21 05:58 10.19915 40.84390 35503 ft 466 kts 238°
2026-04-21 05:58 10.16397 40.78914 35523 ft 462 kts 238°
2026-04-21 05:59 10.12890 40.73458 35529 ft 461 kts 238°
2026-04-21 06:00 10.07637 40.65286 35538 ft 461 kts 238°
2026-04-21 06:00 10.04124 40.59826 35536 ft 462 kts 238°
2026-04-21 06:01 10.00606 40.54360 35549 ft 463 kts 238°
2026-04-21 06:01 9.97079 40.48883 35546 ft 464 kts 238°
2026-04-21 06:02 9.93538 40.43386 35556 ft 466 kts 238°
2026-04-21 06:02 9.90004 40.37905 35399 ft 458 kts 238°
2026-04-21 06:02 9.88268 40.35215 34852 ft 455 kts 238°
2026-04-21 06:03 9.86528 40.32516 34062 ft 459 kts 238°
2026-04-21 06:03 9.84793 40.29827 33959 ft 446 kts 238°
2026-04-21 06:03 9.83110 40.27221 33681 ft 441 kts 238°
2026-04-21 06:03 9.81426 40.24611 33041 ft 443 kts 238°
2026-04-21 06:04 9.79722 40.21969 32771 ft 454 kts 238°
2026-04-21 06:04 9.77966 40.19246 32433 ft 468 kts 238°
2026-04-21 06:04 9.76172 40.16464 32088 ft 473 kts 238°
2026-04-21 06:04 9.74366 40.13669 31737 ft 474 kts 238°
2026-04-21 06:05 9.72561 40.10876 31387 ft 474 kts 238°
2026-04-21 06:05 9.70753 40.08080 30951 ft 475 kts 238°
2026-04-21 06:05 9.68940 40.05275 30533 ft 476 kts 238°
2026-04-21 06:05 9.67124 40.02469 30109 ft 476 kts 238°
2026-04-21 06:06 9.65310 39.99664 29689 ft 476 kts 238°
2026-04-21 06:06 9.63494 39.96858 29268 ft 476 kts 238°
2026-04-21 06:06 9.61681 39.94056 28848 ft 476 kts 238°
2026-04-21 06:06 9.59904 39.91311 28862 ft 457 kts 238°
2026-04-21 06:07 9.58190 39.88667 28824 ft 440 kts 238°
2026-04-21 06:07 9.54848 39.83508 28832 ft 438 kts 237°
2026-04-21 06:08 9.51501 39.78336 28834 ft 440 kts 237°
2026-04-21 06:08 9.48137 39.73145 28834 ft 441 kts 237°
2026-04-21 06:09 9.44769 39.67949 28841 ft 441 kts 237°
2026-04-21 06:09 9.41400 39.62754 28608 ft 441 kts 237°
2026-04-21 06:09 9.39723 39.60170 28358 ft 437 kts 237°
2026-04-21 06:10 9.38039 39.57574 28099 ft 435 kts 237°
2026-04-21 06:10 9.36402 39.55054 27860 ft 434 kts 237°
2026-04-21 06:10 9.34729 39.52477 27446 ft 430 kts 237°
2026-04-21 06:10 9.33094 39.49958 26982 ft 426 kts 237°
2026-04-21 06:11 9.31470 39.47459 26517 ft 423 kts 237°
2026-04-21 06:11 9.29861 39.44981 26044 ft 420 kts 237°
2026-04-21 06:11 9.28266 39.42524 25580 ft 416 kts 237°
2026-04-21 06:11 9.26681 39.40084 25116 ft 414 kts 237°
2026-04-21 06:12 9.25104 39.37658 24657 ft 411 kts 237°
2026-04-21 06:12 9.23538 39.35249 24195 ft 409 kts 237°
2026-04-21 06:12 9.22000 39.32885 23739 ft 406 kts 237°
2026-04-21 06:12 9.20431 39.30472 23280 ft 404 kts 236°
2026-04-21 06:13 9.18889 39.28101 22816 ft 402 kts 236°
2026-04-21 06:13 9.17355 39.25741 22366 ft 400 kts 236°
2026-04-21 06:13 9.15831 39.23396 21915 ft 398 kts 236°
2026-04-21 06:13 9.14314 39.21062 21459 ft 396 kts 236°
2026-04-21 06:14 9.12804 39.18739 21021 ft 394 kts 236°
2026-04-21 06:14 9.11305 39.16432 20567 ft 392 kts 236°
2026-04-21 06:14 9.09808 39.14130 20106 ft 390 kts 236°
2026-04-21 06:14 9.08320 39.11844 19678 ft 388 kts 236°
2026-04-21 06:15 9.06838 39.09567 19236 ft 386 kts 236°
2026-04-21 06:15 9.05368 39.07308 18807 ft 383 kts 236°
2026-04-21 06:15 9.03907 39.05062 18374 ft 381 kts 236°
2026-04-21 06:15 9.02451 39.02827 17946 ft 379 kts 236°
2026-04-21 06:16 9.01005 39.00606 17511 ft 377 kts 236°
2026-04-21 06:16 8.99565 38.98395 17084 ft 375 kts 236°
2026-04-21 06:16 8.98134 38.96198 16660 ft 373 kts 236°
2026-04-21 06:16 8.96711 38.94014 16230 ft 371 kts 236°
2026-04-21 06:17 8.95774 38.92573 15961 ft 369 kts 236°
2026-04-21 06:17 8.94366 38.90414 15535 ft 367 kts 236°
2026-04-21 06:17 8.92966 38.88266 15109 ft 365 kts 236°
2026-04-21 06:17 8.91572 38.86126 14698 ft 363 kts 236°
2026-04-21 06:18 8.90177 38.83984 14034 ft 368 kts 236°
2026-04-21 06:18 8.88774 38.81831 13671 ft 361 kts 236°
2026-04-21 06:18 8.87419 38.79749 13456 ft 348 kts 236°
2026-04-21 06:18 8.86110 38.77742 13300 ft 336 kts 236°
2026-04-21 06:19 8.84848 38.75808 13160 ft 324 kts 236°
2026-04-21 06:19 8.83626 38.73942 13023 ft 313 kts 236°
2026-04-21 06:19 8.82449 38.72136 12881 ft 302 kts 236°
2026-04-21 06:19 8.81315 38.70402 12753 ft 291 kts 236°
2026-04-21 06:20 8.80218 38.68719 12649 ft 282 kts 236°
2026-04-21 06:20 8.79226 38.67056 12516 ft 272 kts 248°
2026-04-21 06:20 8.78986 38.65225 12378 ft 262 kts 281°
2026-04-21 06:20 8.79489 38.63463 12169 ft 260 kts 295°
2026-04-21 06:21 8.80276 38.61858 11925 ft 249 kts 309°
2026-04-21 06:21 8.81557 38.60792 11656 ft 233 kts 340°
2026-04-21 06:21 8.83078 38.60412 11474 ft 223 kts 360°
2026-04-21 06:21 8.84613 38.60531 11257 ft 220 kts 11°
2026-04-21 06:22 8.86065 38.60781 11054 ft 210 kts 12°
2026-04-21 06:22 8.87425 38.61257 10806 ft 198 kts 36°
2026-04-21 06:22 8.88504 38.62089 10661 ft 196 kts 39°
2026-04-21 06:22 8.89603 38.62932 10466 ft 201 kts 37°
2026-04-21 06:23 8.90739 38.63772 10287 ft 203 kts 37°
2026-04-21 06:23 8.91882 38.64614 10088 ft 203 kts 36°
2026-04-21 06:23 8.92883 38.65593 9859 ft 200 kts 60°
2026-04-21 06:23 8.93486 38.66847 9711 ft 199 kts 65°
2026-04-21 06:24 8.94089 38.68114 9516 ft 200 kts 64°
2026-04-21 06:24 8.94663 38.69394 9325 ft 200 kts 70°
2026-04-21 06:24 8.95071 38.70708 9170 ft 188 kts 73°
2026-04-21 06:24 8.95414 38.71924 9009 ft 175 kts 75°
2026-04-21 06:25 8.95734 38.73099 8731 ft 170 kts 74°
2026-04-21 06:25 8.96052 38.74231 8515 ft 165 kts 74°
2026-04-21 06:25 8.96368 38.75338 8317 ft 164 kts 75°
2026-04-21 06:25 8.96688 38.76450 8103 ft 165 kts 75°
2026-04-21 06:26 8.97015 38.77562 7878 ft 165 kts 73°
2026-04-21 06:26 8.97340 38.78671 7696 ft 165 kts 74°
2026-04-21 06:26 8.97650 38.79748 7618 ft 146 kts 74°
2026-04-21 06:26 8.97891 38.80595 7609 ft 95 kts 73°
2026-04-21 06:27 8.98034 38.81072 7602 ft 42 kts 67°
2026-04-21 06:27 8.98180 38.81245 7605 ft 27 kts 44°
2026-04-21 06:27 8.98275 38.81269 7609 ft 6 kts 298°
2026-04-21 06:27 8.98283 38.81228 7609 ft 6 kts 281°
2026-04-21 06:28 8.98312 38.81197 7610 ft 7 kts 346°
2026-04-21 06:28 8.98359 38.81185 7610 ft 7 kts 346°
2026-04-21 06:28 8.98404 38.81170 7609 ft 7 kts 318°
2026-04-21 06:28 8.98401 38.81124 7609 ft 7 kts 254°
2026-04-21 06:29 8.98389 38.81080 7609 ft 7 kts 254°
2026-04-21 06:29 8.98376 38.81036 7610 ft 7 kts 253°
2026-04-21 06:29 8.98363 38.80991 7610 ft 7 kts 253°
2026-04-21 06:29 8.98350 38.80946 7610 ft 6 kts 253°
2026-04-21 06:30 8.98338 38.80903 7610 ft 6 kts 253°
2026-04-21 06:30 8.98324 38.80859 7610 ft 7 kts 253°
2026-04-21 06:30 8.98311 38.80814 7611 ft 7 kts 253°
2026-04-21 06:30 8.98297 38.80767 7611 ft 7 kts 253°
2026-04-21 06:31 8.98293 38.80719 7611 ft 7 kts 308°
2026-04-21 06:31 8.98325 38.80712 7611 ft 0 kts 352°